Retour au catalogue

STARLINK-33928

ActifCommunicationsVLEO
NORAD 64003·PAYLOAD·🇺🇸 United States

Lancé May 14, 2025 depuis Cape Canaveral Space Force Station

Loading…

Prochains Passages (prochaines 24 heures)

TLE

FraisSource: CelesTrak SupGP

Époque: Sep 15, 2026, 03:15 UTC

1 64003C 25101K   26258.13590278  .00030239  00000+0  10951-2 0  2582
2 64003  43.0032   7.6978 0001478 263.3448  70.2844 15.27567160    10

Suivez STARLINK-33928 en temps réel avec AllMySat

Download on the App Store